Weather History for Toccoa Rg Letourneau Field, T, GA

Change the Weather History Date:

Saturday, December 15, 2012

  Actual Average Record
Temperature  
Mean Temperature 49 °F -  
Max Temperature 60 °F 54 °F 62 °F (2014)
Min Temperature 39 °F 35 °F 33 °F (2014)
Degree Days  
Heating Degree Days 16    
Moisture  
Dew Point 39 °F    
Average Humidity 71    
Maximum Humidity 89    
Minimum Humidity 46    
Precipitation  
Precipitation 0.00 in - - ()
Sea Level Pressure  
Sea Level Pressure 30.17 in    
Wind  
Wind Speed 0 mph ()    
Max Wind Speed 5 mph    
Max Gust Speed -    
Visibility 10.0 miles    
Events      
Averages and records for this station are not official NWS values.
T = Trace of Precipitation, MM = Missing Value Source: Averaged Metar Reports

Daily Weather History Graph

Daily Weather History Graph

Search for Another Location

Airport:

Trip Planner

Search our weather history database for the weather conditions in past years. The results will help you decide how hot, cold, wet, or windy it might be!

Date:

Astronomy

Dec. 15, 2012 Rise Set
Actual Time 7:33 AM EST 5:24 PM EST
Civil Twilight 7:05 AM EST 5:52 PM EST
Nautical Twilight 6:33 AM EST 6:23 PM EST
Astronomical Twilight 6:02 AM EST 6:54 PM EST
Moon 9:29 AM EST (12/15) 8:21 PM EST (12/15)
Length of Visible Light 10h 47m
Length of Day
9h 51m
Waxing Crescent, 8% of the Moon is Illuminated
Dec 15
Waxing Crescent
Dec 20
First Quarter
Dec 28
Full
Jan 4
Last Quarter
Jan 11
New

Hourly Weather History & Observations

Time (EST) Temp. Windchill Dew Point Humidity Pressure Visibility Wind Dir Wind Speed Gust Speed Precip Events Conditions
12:15 AM 40.5 °F - 35.1 °F 81% 30.23 in 10.0 mi Calm Calm - N/A   Clear
12:35 AM 39.4 °F - 34.9 °F 84% 30.22 in 10.0 mi Calm Calm - N/A   Clear
12:55 AM 41.0 °F - 35.2 °F 80% 30.23 in 10.0 mi Calm Calm - N/A   Clear
1:35 AM 40.3 °F - 35.8 °F 84% 30.21 in 10.0 mi Calm Calm - N/A   Clear
1:55 AM 40.5 °F - 36.0 °F 84% 30.22 in 10.0 mi Calm Calm - N/A   Clear
2:15 AM 40.5 °F - 35.8 °F 83% 30.22 in 10.0 mi Calm Calm - N/A   Clear
2:35 AM 40.5 °F - 35.8 °F 83% 30.23 in 10.0 mi Calm Calm - N/A   Clear
2:55 AM 41.0 °F - 36.1 °F 83% 30.22 in 10.0 mi Calm Calm - N/A   Clear
3:15 AM 40.1 °F - 36.7 °F 88% 30.21 in 10.0 mi Calm Calm - N/A   Clear
3:35 AM 40.6 °F 38.6 °F 36.9 °F 86% 30.21 in 10.0 mi North 3.5 mph - N/A   Clear
3:55 AM 40.3 °F - 36.0 °F 85% 30.21 in 10.0 mi Calm Calm - N/A   Clear
4:15 AM 39.4 °F - 36.3 °F 89% 30.21 in 10.0 mi Calm Calm - N/A   Clear
4:35 AM 41.4 °F 38.4 °F 36.3 °F 82% 30.21 in 10.0 mi NNW 4.6 mph - N/A   Clear
4:55 AM 42.3 °F - 36.5 °F 80% 30.20 in 10.0 mi Calm Calm - N/A   Clear
5:15 AM 42.1 °F - 36.5 °F 81% 30.21 in 10.0 mi Calm Calm - N/A   Clear
5:35 AM 42.1 °F - 36.9 °F 82% 30.22 in 10.0 mi Calm Calm - N/A   Clear
5:55 AM 41.2 °F - 37.4 °F 86% 30.20 in 10.0 mi Calm Calm - N/A   Clear
6:15 AM 41.2 °F - 37.6 °F 87% 30.19 in 10.0 mi Calm Calm - N/A   Clear
6:35 AM 42.6 °F - 37.4 °F 82% 30.20 in 10.0 mi Calm Calm - N/A   Clear
6:55 AM 42.3 °F - 38.1 °F 85% 30.21 in 10.0 mi Calm Calm - N/A   Clear
7:15 AM 41.7 °F - 37.6 °F 85% 30.21 in 10.0 mi Calm Calm - N/A   Clear
7:35 AM 42.4 °F - 37.2 °F 82% 30.23 in 10.0 mi Calm Calm - N/A   Clear
7:55 AM 43.0 °F - 37.8 °F 82% 30.23 in 10.0 mi Calm Calm - N/A   Clear
8:15 AM 43.7 °F - 38.7 °F 82% 30.22 in 10.0 mi Calm Calm - N/A   Scattered Clouds
8:35 AM 43.5 °F - 38.8 °F 84% 30.21 in 10.0 mi Calm Calm - N/A   Mostly Cloudy
8:55 AM 44.4 °F - 38.3 °F 79% 30.23 in 10.0 mi Calm Calm - N/A   Scattered Clouds
9:15 AM 44.8 °F - 39.4 °F 81% 30.24 in 10.0 mi Calm Calm - N/A   Clear
9:35 AM 45.5 °F - 38.5 °F 76% 30.24 in 10.0 mi Calm Calm - N/A   Scattered Clouds
9:55 AM 46.6 °F - 38.3 °F 73% 30.23 in 10.0 mi Calm Calm - N/A   Clear
10:15 AM 48.6 °F - 38.7 °F 69% 30.24 in 10.0 mi Calm Calm - N/A   Clear
10:35 AM 52.0 °F - 37.6 °F 58% 30.24 in 10.0 mi Calm Calm - N/A   Scattered Clouds
10:55 AM 52.9 °F - 38.1 °F 57% 30.23 in 10.0 mi Calm Calm - N/A   Mostly Cloudy
11:15 AM 53.1 °F - 37.2 °F 55% 30.22 in 10.0 mi Calm Calm - N/A   Overcast
11:35 AM 53.8 °F - 37.0 °F 53% 30.22 in 10.0 mi Calm Calm - N/A   Overcast
11:55 AM 55.0 °F - 37.2 °F 51% 30.21 in 10.0 mi Calm Calm - N/A   Mostly Cloudy
12:15 PM 56.8 °F - 37.8 °F 49% 30.19 in 10.0 mi Calm Calm - N/A   Mostly Cloudy
12:35 PM 56.7 °F - 37.6 °F 49% 30.19 in 10.0 mi Calm Calm - N/A   Mostly Cloudy
12:55 PM 58.5 °F - 38.3 °F 47% 30.17 in 10.0 mi East 3.5 mph - N/A   Overcast
1:15 PM 58.5 °F - 38.3 °F 47% 30.16 in 10.0 mi SW 3.5 mph - N/A   Overcast
1:35 PM 58.3 °F - 38.5 °F 48% 30.16 in 10.0 mi Calm Calm - N/A   Overcast
1:55 PM 59.0 °F - 38.8 °F 47% 30.14 in 10.0 mi SW 4.6 mph - N/A   Overcast
2:15 PM 58.1 °F - 39.0 °F 49% 30.13 in 10.0 mi Calm Calm - N/A   Overcast
2:35 PM 58.3 °F - 39.0 °F 49% 30.12 in 10.0 mi SSW 3.5 mph - N/A   Overcast
2:55 PM 59.0 °F - 39.6 °F 49% 30.12 in 10.0 mi Calm Calm - N/A   Overcast
3:15 PM 59.9 °F - 39.2 °F 46% 30.13 in 10.0 mi WSW 3.5 mph - N/A   Mostly Cloudy
3:35 PM 58.6 °F - 39.2 °F 48% 30.11 in 10.0 mi Calm Calm - N/A   Overcast
3:55 PM 58.5 °F - 39.7 °F 50% 30.12 in 10.0 mi Calm Calm - N/A   Overcast
4:15 PM 58.8 °F - 39.6 °F 49% 30.11 in 10.0 mi Calm Calm - N/A   Overcast
4:35 PM 57.7 °F - 39.9 °F 51% 30.10 in 10.0 mi Calm Calm - N/A   Overcast
5:15 PM 56.1 °F - 42.8 °F 61% 30.12 in 10.0 mi Calm Calm - N/A   Overcast
5:35 PM 55.4 °F - 41.5 °F 60% 30.12 in 10.0 mi Calm Calm - N/A   Mostly Cloudy
5:55 PM 53.2 °F - 43.0 °F 68% 30.12 in 10.0 mi Calm Calm - N/A   Mostly Cloudy
6:15 PM 53.2 °F - 43.0 °F 68% 30.13 in 10.0 mi Calm Calm - N/A   Mostly Cloudy
6:35 PM 52.5 °F - 42.8 °F 70% 30.12 in 10.0 mi Calm Calm - N/A   Scattered Clouds
6:55 PM 51.3 °F - 42.6 °F 72% 30.12 in 10.0 mi Calm Calm - N/A   Scattered Clouds
7:15 PM 51.3 °F - 43.0 °F 73% 30.13 in 10.0 mi Calm Calm - N/A   Mostly Cloudy
7:35 PM 51.6 °F - 43.0 °F 72% 30.12 in 10.0 mi Calm Calm - N/A   Overcast
7:55 PM 50.7 °F - 43.2 °F 75% 30.11 in 10.0 mi Calm Calm - N/A   Mostly Cloudy
8:15 PM 50.7 °F - 43.2 °F 75% 30.12 in 10.0 mi Calm Calm - N/A   Overcast
8:35 PM 50.5 °F - 43.2 °F 76% 30.11 in 10.0 mi Calm Calm - N/A   Overcast
8:55 PM 50.9 °F - 42.8 °F 74% 30.11 in 10.0 mi Calm Calm - N/A   Mostly Cloudy
9:15 PM 49.6 °F - 43.9 °F 81% 30.10 in 10.0 mi Calm Calm - N/A   Mostly Cloudy
9:35 PM 50.2 °F - 43.9 °F 79% 30.10 in 10.0 mi Calm Calm - N/A   Mostly Cloudy
9:55 PM 50.2 °F - 42.8 °F 76% 30.11 in 10.0 mi NW 4.6 mph - N/A   Mostly Cloudy
10:15 PM 50.7 °F - 43.7 °F 77% 30.11 in 10.0 mi Calm Calm - N/A   Overcast
10:35 PM 50.7 °F - 43.3 °F 76% 30.11 in 10.0 mi Calm Calm - N/A   Overcast
10:55 PM 50.0 °F - 44.1 °F 80% 30.11 in 10.0 mi Calm Calm - N/A   Mostly Cloudy
11:15 PM 50.2 °F - 43.9 °F 79% 30.09 in 10.0 mi Calm Calm - N/A   Mostly Cloudy
11:35 PM 49.8 °F - 43.7 °F 79% 30.09 in 10.0 mi Calm Calm - N/A   Overcast
11:55 PM 50.0 °F - 43.7 °F 79% 30.09 in 10.0 mi Calm Calm - N/A   Overcast